[[{"header":{"parameterUnit":"m.s-1","parameterCategory":1,"la1":30.2991,"la2":30.254,"lo1":-89.0895,"lo2":-89.0444,"dy":0.0017,"dx":0.0017,"nx":28,"ny":28,"refTime":"2025-04-20T21:00:00:Z","depth":0,"parameterNumber":2,"parameterNumberName":"U-component_of_WINDS"},"data":[0,0,0,0,0,0,0,0,0,0,0,0,0,0,0,0,0,0,0,0,0,0,0,0,0,0,0,0,0,0,0,0,0,0,0,0,0,0,0,0,0,0,0,0,0,0,0,0,0,0,0,0,0,0,0,0,0,0,-2.7522,-2.7523,0,-2.7616,-2.7617,-2.7618,-2.7629,-2.7628,-2.7628,-2.7627,-2.7723,-2.7726,-2.7729,0,0,0,0,0,0,0,0,0,0,0,0,0,-2.7356,-2.7359,-2.7522,-2.7524,-2.7525,-2.7615,-2.7617,-2.7618,-2.763,-2.7628,-2.7627,-2.7626,-2.7722,-2.7726,-2.773,0,0,0,0,0,0,0,0,0,0,0,0,0,-2.7437,-2.736,-2.7522,-2.7541,-2.7544,-2.7615,-2.7617,-2.7618,-2.763,-2.7628,-2.7627,-2.7626,-2.772,-2.7725,-2.773,-2.7789,0,0,-2.7746,-2.7748,0,0,0,0,0,0,0,0,-2.7432,-2.7443,-2.7537,-2.754,-2.7543,-2.7609,-2.7593,-2.7675,-2.763,-2.7597,-2.7627,-2.7625,-2.7686,-2.7694,-2.7714,-2.7793,-2.7797,-2.7746,-2.7749,-2.7752,-2.7753,0,0,0,0,0,0,0,-2.7426,-2.7439,-2.7559,-2.7539,-2.7542,-2.7546,-2.7556,-2.7609,-2.7648,-2.76,-2.7601,-2.7612,-2.7688,-2.7709,-2.7717,-2.7799,-2.7746,-2.7751,-2.7754,-2.7756,-2.7931,-2.7933,0,0,0,0,0,0,-2.7417,-2.7434,-2.7556,-2.7562,-2.7483,-2.755,-2.7561,-2.759,-2.7648,-2.7655,-2.7613,-2.7612,-2.7701,-2.7711,-2.772,-2.7793,-2.7751,-2.7756,-2.7759,-2.793,-2.7932,-2.7934,0,0,0,0,0,0,-2.7414,-2.7428,-2.7553,-2.7498,-2.7515,-2.7554,-2.7586,-2.7592,-2.7614,-2.7657,-2.7665,-2.7628,-2.7701,-2.7713,-2.7772,-2.7796,-2.7759,-2.7763,-2.7928,-2.793,-2.7933,-2.7938,0,0,0,0,0,0,-2.7409,-2.7427,-2.7449,-2.7499,-2.7517,-2.7602,-2.7588,-2.7595,-2.7623,-2.7623,-2.7673,-2.7681,-2.7701,-2.7764,-2.7777,-2.7802,-2.7767,-2.7926,-2.7929,-2.7932,-2.7936,-2.794,-2.7944,0,0,0,0,0,-2.7403,-2.7446,-2.745,-2.7464,-2.7546,-2.7603,-2.7614,-2.7636,-2.7625,-2.7647,-2.7676,-2.7679,-2.7792,-2.777,-2.7784,-2.7812,-2.7924,-2.7928,-2.7932,-2.7934,-2.7939,-2.7944,0,0,0,0,0,0,-2.7398,-2.7453,-2.7458,-2.7519,-2.7556,-2.7605,-2.7634,-2.7641,-2.7683,-2.7681,-2.7706,-2.7718,-2.7776,-2.78,-2.7775,-2.7872,-2.7857,-2.7864,-2.7854,-2.7859,-2.7863,-2.7856,-2.7771,0,0,0,0,0,-2.7404,-2.7446,-2.7492,-2.7541,-2.756,-2.7594,-2.762,-2.7634,-2.7674,-2.769,-2.7722,-2.7761,-2.7806,-2.7834,-2.7877,-2.794,-2.7951,-2.7966,-2.797,-2.7973,-2.7978,-2.8014,-2.8021,-2.7945,-2.7945,-2.7945,0,0,-2.7417,-2.7452,-2.7477,-2.7541,-2.7572,-2.7615,-2.7607,-2.7653,-2.7685,-2.7697,-2.7754,-2.778,-2.7825,-2.7886,-2.7914,-2.7908,-2.8002,-2.7978,-2.798,-2.7984,-2.8018,-2.8025,-2.8032,-2.7948,-2.7947,-2.7947,0,0,-2.7462,-2.7493,-2.7537,-2.7569,-2.7616,-2.7638,-2.7649,-2.7698,-2.7715,-2.7773,-2.7783,-2.7822,-2.7898,-2.793,-2.7956,-2.8015,-2.802,-2.8029,-2.805,-2.8084,-2.809,-2.8095,-2.8116,-2.8123,-2.8034,-2.8034,-2.8034,0,-2.7471,-2.7536,-2.756,-2.7605,-2.7634,-2.7647,-2.7692,-2.7722,-2.778,-2.78,-2.7792,-2.7888,-2.792,-2.7988,-2.8003,-2.8024,-2.8037,-2.8022,-2.8087,-2.8093,-2.8098,-2.8118,-2.8126,-2.8035,-2.8035,-2.8035,-2.8035,0,-2.7546,-2.7591,-2.7622,-2.7678,-2.771,-2.7755,-2.7786,-2.7816,-2.7828,-2.7852,-2.7911,-2.795,-2.8001,-2.8019,-2.8031,-2.809,-2.8085,-2.8082,-2.8067,-2.8106,-2.8125,-2.8133,-2.8036,-2.8035,-2.8035,-2.8035,0,0,-2.7588,-2.7658,-2.7669,-2.7695,-2.7748,-2.7784,-2.7831,-2.7881,-2.7906,-2.7947,-2.7987,-2.8051,-2.805,-2.8079,-2.8095,-2.8126,-2.817,-2.8119,-2.8121,-2.8127,-2.8238,-2.8238,-2.8247,-2.8174,-2.8176,-2.8177,-2.8234,0,-2.7639,-2.7722,-2.7745,-2.7815,-2.7857,-2.7871,-2.7912,-2.795,-2.7974,-2.8014,-2.804,-2.8086,-2.808,-2.8098,-2.8129,-2.8158,-2.8192,-2.8154,-2.8211,-2.8213,-2.8198,-2.8257,-2.8258,-2.8309,-2.8241,-2.8243,-2.8244,0,-2.7709,-2.7751,-2.7825,-2.7874,-2.7892,-2.7928,-2.7977,-2.8015,-2.8058,-2.8074,-2.8108,-2.8121,-2.8171,-2.8155,-2.8225,-2.8198,-2.8223,-2.8242,-2.8244,-2.8249,-2.823,-2.8263,-2.8326,-2.8334,-2.8256,-2.8255,-2.8254,0,-2.7731,-2.7807,-2.7861,-2.7883,-2.7942,-2.7967,-2.7992,-2.8034,-2.8064,-2.8107,-2.8126,-2.8174,-2.82,-2.8238,-2.8264,-2.825,-2.8332,-2.8318,-2.8346,-2.8345,-2.8361,-2.8359,-2.8428,-2.8379,-2.8379,-2.8379,-2.8379,0,-2.7785,-2.783,-2.7872,-2.7905,-2.7956,-2.7983,-2.8033,-2.806,-2.8097,-2.8137,-2.8152,-2.8189,-2.8222,-2.8264,-2.8285,-2.8339,-2.8351,-2.8365,-2.837,-2.8363,-2.8361,-2.8379,-2.8376,-2.8381,-2.8381,-2.838,-2.838,0,-2.7818,-2.7849,-2.7909,-2.796,-2.7973,-2.8009,-2.8053,-2.8086,-2.8111,-2.816,-2.8174,-2.8213,-2.8263,-2.8294,-2.8356,-2.8371,-2.8431,-2.8435,-2.8416,-2.8418,-2.8444,-2.8441,-2.8526,-2.8538,-2.8481,-2.8482,-2.8482,0,-2.785,-2.7884,-2.7939,-2.7967,-2.7992,-2.8036,-2.8066,-2.8095,-2.8125,-2.8178,-2.8205,-2.8256,-2.8298,-2.8376,-2.8411,-2.846,-2.8465,-2.8491,-2.8472,-2.8464,-2.8464,-2.8461,-2.8465,-2.8494,-2.8494,-2.8495,-2.8495,0,-2.7902,-2.7916,-2.7958,-2.8006,-2.8041,-2.8081,-2.812,-2.8142,-2.8177,-2.8211,-2.8262,-2.8294,-2.8359,-2.8409,-2.8461,-2.8488,-2.8498,-2.8501,-2.851,-2.8503,-2.849,-2.8497,-2.8423,-2.8499,-2.8498,-2.8498,-2.8498,-2.8498,-2.7936,-2.7967,-2.8011,-2.8058,-2.809,-2.8127,-2.8161,-2.819,-2.8233,-2.8287,-2.8302,-2.8355,-2.8399,-2.847,-2.8499,-2.8541,-2.8537,-2.855,-2.8554,-2.8556,-2.8556,-2.8484,-2.8551,-2.8551,-2.8551,-2.8551,-2.8551,0,-2.7988,-2.8018,-2.806,-2.8115,-2.8152,-2.8158,-2.8202,-2.8233,-2.8279,-2.8319,-2.836,-2.8419,-2.8468,-2.8508,-2.8558,-2.8585,-2.859,-2.8597,-2.8595,-2.8601,-2.8557,-2.8544,-2.8591,-2.8591,-2.8591,-2.8591,-2.8591,-2.8591,-2.802,-2.8074,-2.8093,-2.8164,-2.8193,-2.8245,-2.827,-2.8304,-2.8336,-2.84,-2.8441,-2.8466,-2.8507,-2.856,-2.8606,-2.8616,-2.8634,-2.864,-2.8651,-2.8609,-2.8604,-2.86,-2.8587,-2.8643,-2.8643,-2.8691,-2.8692,-2.8692]},{"header":{"parameterUnit":"m.s-1","parameterCategory":1,"la1":30.2991,"la2":30.254,"lo1":-89.0895,"lo2":-89.0444,"dy":0.0017,"dx":0.0017,"nx":28,"ny":28,"refTime":"2025-04-20T21:00:00:Z","depth":0,"parameterNumber":3,"parameterNumberName":"V-component_of_WINDS"},"data":[0,0,0,0,0,0,0,0,0,0,0,0,0,0,0,0,0,0,0,0,0,0,0,0,0,0,0,0,0,0,0,0,0,0,0,0,0,0,0,0,0,0,0,0,0,0,0,0,0,0,0,0,0,0,0,0,0,0,4.5485,4.5485,0,4.5552,4.5553,4.5553,4.5589,4.5589,4.5589,4.5589,4.565,4.5651,4.5653,0,0,0,0,0,0,0,0,0,0,0,0,0,4.538,4.5382,4.5485,4.5486,4.5486,4.5552,4.5553,4.5554,4.5589,4.5589,4.5589,4.5589,4.5649,4.5651,4.5653,0,0,0,0,0,0,0,0,0,0,0,0,0,4.5434,4.5383,4.5485,4.5512,4.5515,4.5552,4.5553,4.5554,4.5589,4.5589,4.5589,4.5589,4.5649,4.5651,4.5653,4.5665,0,0,4.566,4.5661,0,0,0,0,0,0,0,0,4.5431,4.5438,4.5507,4.551,4.5514,4.5562,4.5538,4.5591,4.5589,4.556,4.5589,4.5589,4.562,4.5625,4.5637,4.5668,4.5671,4.566,4.5662,4.5663,4.5663,0,0,0,0,0,0,0,4.5427,4.5435,4.5511,4.5508,4.5512,4.5519,4.5527,4.5548,4.5588,4.5563,4.5566,4.5574,4.5622,4.5634,4.5638,4.5671,4.566,4.5662,4.5664,4.5665,4.5718,4.5718,0,0,0,0,0,0,4.542,4.5432,4.5509,4.5513,4.5472,4.5521,4.5529,4.5546,4.5588,4.5595,4.5573,4.5575,4.563,4.5636,4.5641,4.5659,4.5663,4.5665,4.5666,4.5718,4.5718,4.5718,0,0,0,0,0,0,4.5418,4.5427,4.5506,4.5473,4.5484,4.5522,4.5541,4.5548,4.5561,4.5596,4.5603,4.5579,4.5631,4.5637,4.566,4.5662,4.5666,4.5668,4.5718,4.5718,4.5718,4.5695,0,0,0,0,0,0,4.5415,4.5426,4.5432,4.5473,4.5486,4.5526,4.5541,4.5549,4.5565,4.5568,4.5604,4.561,4.5631,4.5656,4.5662,4.5665,4.567,4.5718,4.5718,4.5718,4.5696,4.5695,4.5693,0,0,0,0,0,4.5411,4.542,4.5432,4.5441,4.5495,4.5526,4.5533,4.556,4.5565,4.5571,4.5595,4.5609,4.5661,4.5658,4.5665,4.5669,4.5718,4.5718,4.5718,4.5697,4.5695,4.5694,0,0,0,0,0,0,4.5374,4.5426,4.544,4.5463,4.5491,4.5532,4.554,4.5557,4.558,4.5581,4.5611,4.5619,4.5639,4.5656,4.5652,4.5684,4.5691,4.5692,4.5672,4.5671,4.5669,4.5665,4.5672,0,0,0,0,0,4.537,4.5393,4.5436,4.5453,4.5467,4.5501,4.5516,4.5535,4.5562,4.5573,4.5598,4.5623,4.5645,4.5658,4.5681,4.5699,4.5707,4.5705,4.5703,4.5702,4.5703,4.5715,4.5715,4.5718,4.5718,4.5718,0,0,4.5359,4.539,4.5403,4.5447,4.547,4.5492,4.551,4.5532,4.5549,4.5575,4.56,4.5619,4.5648,4.5669,4.568,4.5684,4.5704,4.5702,4.5701,4.5703,4.5715,4.5715,4.5715,4.5718,4.5718,4.5718,0,0,4.5352,4.5378,4.5396,4.542,4.5457,4.548,4.5484,4.5524,4.5539,4.5564,4.5586,4.5604,4.5641,4.5662,4.5678,4.5681,4.5695,4.5687,4.568,4.5692,4.5692,4.5692,4.5694,4.5694,4.5688,4.5688,4.5688,0,4.5333,4.537,4.5402,4.5425,4.5444,4.5473,4.5491,4.5512,4.5552,4.5563,4.5568,4.5618,4.5639,4.5666,4.5668,4.5679,4.5684,4.5684,4.569,4.569,4.569,4.5693,4.5694,4.5687,4.5687,4.5687,4.5687,0,4.5347,4.5372,4.5382,4.5425,4.5445,4.5464,4.5498,4.5514,4.5531,4.5553,4.5579,4.5607,4.5636,4.5644,4.5659,4.5673,4.5675,4.5684,4.5692,4.5688,4.5691,4.5693,4.5685,4.5686,4.5686,4.5686,0,0,4.5316,4.538,4.5383,4.5404,4.5448,4.5467,4.5488,4.552,4.5533,4.556,4.5578,4.561,4.562,4.5638,4.5656,4.5666,4.5669,4.5674,4.5675,4.5673,4.5688,4.5681,4.5682,4.5679,4.5679,4.5679,4.5686,0,4.5316,4.536,4.539,4.5421,4.5445,4.5474,4.5492,4.552,4.5542,4.5564,4.5586,4.561,4.562,4.5631,4.5643,4.5666,4.5672,4.5666,4.5695,4.5695,4.5688,4.5683,4.5676,4.5681,4.5687,4.5687,4.5687,0,4.5322,4.5353,4.5387,4.5431,4.5442,4.5458,4.5491,4.5512,4.5544,4.5559,4.558,4.56,4.5622,4.5628,4.5659,4.5654,4.5667,4.5681,4.5682,4.5686,4.5692,4.5688,4.5683,4.5684,4.5689,4.5689,4.5689,0,4.5299,4.5348,4.5376,4.5392,4.5443,4.5455,4.5476,4.5508,4.5527,4.5554,4.5566,4.5595,4.561,4.5631,4.5657,4.5659,4.5686,4.5693,4.5698,4.5698,4.5703,4.5702,4.5701,4.571,4.571,4.571,4.571,0,4.5296,4.5316,4.5367,4.5384,4.5407,4.5441,4.5462,4.5485,4.5514,4.5535,4.556,4.5578,4.5612,4.5633,4.5654,4.5677,4.5683,4.5695,4.57,4.5694,4.5692,4.5703,4.5704,4.571,4.571,4.571,4.571,0,4.5274,4.5309,4.5341,4.5389,4.5401,4.5416,4.5455,4.5472,4.5496,4.5522,4.553,4.5567,4.5594,4.5623,4.5658,4.5672,4.5695,4.5701,4.5685,4.5688,4.5692,4.5692,4.5698,4.5701,4.5707,4.5707,4.5707,0,4.527,4.5287,4.5338,4.5356,4.5378,4.5405,4.5425,4.5459,4.5478,4.5517,4.5529,4.5559,4.5585,4.5627,4.5655,4.5683,4.5691,4.5691,4.5695,4.5688,4.5692,4.5692,4.5694,4.569,4.569,4.569,4.569,0,4.526,4.5278,4.5308,4.5344,4.5369,4.5397,4.5427,4.5439,4.5479,4.5499,4.5529,4.555,4.5589,4.5618,4.565,4.5669,4.5686,4.5688,4.5691,4.5685,4.5675,4.5682,4.5683,4.5688,4.5688,4.5688,4.5688,4.5688,4.5248,4.5266,4.5306,4.5338,4.5365,4.5393,4.5412,4.5441,4.5468,4.5505,4.5522,4.5553,4.5585,4.563,4.5649,4.5672,4.5677,4.568,4.5681,4.5682,4.5681,4.5671,4.5678,4.5678,4.5678,4.5678,4.5678,0,4.5241,4.5269,4.5299,4.5343,4.5368,4.5386,4.542,4.5439,4.5467,4.5498,4.5524,4.5559,4.5588,4.562,4.5651,4.5663,4.5671,4.567,4.567,4.5674,4.5674,4.567,4.5663,4.5663,4.5663,4.5663,4.5663,4.5663,4.5241,4.5272,4.5294,4.5339,4.5366,4.5399,4.5418,4.5443,4.5468,4.5508,4.5534,4.5556,4.5586,4.562,4.5647,4.5655,4.5666,4.5662,4.5672,4.5672,4.5674,4.5675,4.5671,4.5664,4.5664,4.567,4.567,4.567]}]]